FW0837 Weather Reports


Display with metric or nautical units.
time (UTC)temp
F
wind
direction
speed
MPH
gust
MPH
rain 1hr
in
rain 24hr
in
rain mn
in
humidity
%
barometer
mb
20260507040005 54 303 4.0 14.0 0.00 0.25 0.00 90 1007.0
20260507035503 55 359 4.0 14.0 0.00 0.25 0.25 91 1006.8
20260507035001 56 283 3.0 9.0 0.00 0.25 0.25 91 1006.6
20260507034601 56 347 2.0 9.0 0.00 0.25 0.25 91 1006.4
20260507034059 56 253 2.0 11.0 0.00 0.25 0.25 91 1006.3
20260507033559 56 231 4.0 13.0 0.00 0.25 0.25 92 1006.1
20260507033102 57 285 4.0 13.0 0.00 0.25 0.25 91 1006.0
20260507032556 57 359 3.0 11.0 0.00 0.25 0.25 92 1006.0
20260507032055 57 359 4.0 19.0 0.00 0.25 0.25 92 1005.8
20260507031555 57 264 7.0 19.0 0.00 0.25 0.25 92 1005.9
20260507031053 58 241 7.0 14.0 0.00 0.25 0.25 92 1005.9
20260507030557 58 253 6.0 13.0 0.00 0.25 0.25 92 1005.8
20260507030052 59 241 3.0 10.0 0.00 0.25 0.25 92 1005.8
20260507025551 58 237 3.0 10.0 0.00 0.25 0.25 92 1005.6
20260507025051 58 225 3.0 9.0 0.00 0.25 0.25 92 1005.6
20260507024604 58 225 3.0 9.0 0.00 0.25 0.25 92 1005.6
20260507024053 58 195 4.0 9.0 0.00 0.25 0.25 92 1005.5
20260507023554 58 235 1.0 9.0 0.00 0.25 0.25 92 1005.5
20260507023052 59 218 3.0 8.0 0.00 0.25 0.25 92 1005.5
20260507022555 58 233 3.0 8.0 0.00 0.25 0.25 92 1005.5
20260507022049 58 214 2.0 7.0 0.00 0.25 0.25 92 1005.3
20260507021549 58 237 4.0 11.0 0.00 0.25 0.25 92 1005.3
20260507021048 58 226 3.0 11.0 0.00 0.25 0.25 92 1005.3
20260507020548 58 224 4.0 9.0 0.00 0.25 0.25 92 1005.3
20260507020106 58 176 2.0 10.0 0.00 0.25 0.25 92 1005.2
20260507015547 58 164 1.0 10.0 0.00 0.25 0.25 92 1005.4
20260507015047 58 200 3.0 10.0 0.00 0.25 0.25 92 1005.4
20260507014552 58 196 2.0 9.0 0.00 0.25 0.25 92 1005.5
20260507014046 58 226 3.0 8.0 0.00 0.25 0.25 92 1005.5
20260507013546 58 227 3.0 8.0 0.00 0.25 0.25 92 1005.4
20260507013052 58 188 3.0 14.0 0.00 0.25 0.25 92 1005.5
20260507012542 59 239 3.0 14.0 0.00 0.25 0.25 92 1005.6
20260507012042 59 149 4.0 8.0 0.00 0.25 0.25 92 1005.5
20260507011542 59 193 3.0 10.0 0.00 0.25 0.25 92 1005.6
20260507011042 59 205 3.0 10.0 0.00 0.25 0.25 92 1005.7
20260507010541 59 234 1.0 10.0 0.00 0.25 0.25 92 1005.6
20260507010042 59 188 1.0 7.0 0.00 0.25 0.25 92 1005.6
20260507005541 59 216 3.0 11.0 0.00 0.25 0.25 92 1005.7
20260507005043 59 159 4.0 11.0 0.00 0.25 0.25 92 1005.6
20260507004551 59 172 3.0 14.0 0.00 0.25 0.25 92 1005.6
20260507004041 59 162 4.0 9.0 0.00 0.25 0.25 92 1005.5
20260507003540 59 149 2.0 12.0 0.00 0.25 0.25 92 1005.3
20260507003044 59 199 4.0 12.0 0.00 0.25 0.25 92 1005.5
20260507002538 59 215 4.0 10.0 0.00 0.25 0.25 92 1005.5
20260507002037 59 187 2.0 8.0 0.01 0.25 0.25 92 1005.6
20260507001544 59 213 2.0 11.0 0.03 0.25 0.25 92 1005.5
20260507001036 59 233 4.0 11.0 0.05 0.25 0.25 92 1005.4
20260507000536 59 222 3.0 10.0 0.06 0.25 0.25 92 1005.4
20260507000036 59 167 2.0 10.0 0.06 0.25 0.25 91 1005.4
20260506235535 59 234 4.0 9.0 0.06 0.25 0.25 91 1005.2
20260506235035 59 172 2.0 9.0 0.07 0.25 0.25 91 1005.2
20260506234538 59 161 4.0 10.0 0.08 0.25 0.25 91 1005.2
20260506234034 59 218 4.0 10.0 0.09 0.25 0.25 91 1005.1
20260506233534 59 135 3.0 9.0 0.09 0.25 0.25 91 1005.2
20260506233034 59 206 1.0 14.0 0.10 0.25 0.25 91 1005.2
20260506232532 59 170 4.0 15.0 0.10 0.25 0.25 91 1005.3
20260506232033 59 242 3.0 11.0 0.09 0.24 0.24 91 1005.4
20260506231531 59 201 1.0 11.0 0.08 0.22 0.22 91 1005.4
20260506231031 59 197 1.0 11.0 0.06 0.20 0.20 91 1005.4
20260506230529 59 242 3.0 10.0 0.06 0.19 0.19 91 1005.6
20260506230029 59 193 3.0 10.0 0.06 0.19 0.19 91 1005.7
20260506225529 59 199 2.0 10.0 0.06 0.18 0.18 91 1005.6
20260506225029 59 183 3.0 10.0 0.07 0.18 0.18 91 1005.6
20260506224533 59 206 2.0 7.0 0.05 0.16 0.16 91 1005.5
20260506224029 59 175 3.0 13.0 0.05 0.16 0.16 90 1005.5
20260506223527 59 179 4.0 12.0 0.05 0.16 0.16 90 1005.6
20260506223036 59 187 3.0 12.0 0.04 0.15 0.15 90 1005.6
20260506222527 59 161 3.0 9.0 0.04 0.15 0.15 90 1005.7
20260506222029 60 183 2.0 9.0 0.04 0.15 0.15 90 1005.6
20260506221525 60 198 3.0 6.0 0.03 0.14 0.14 90 1005.8
20260506221024 60 114 1.0 6.0 0.03 0.14 0.14 90 1005.7
20260506220524 60 201 0.0 5.0 0.03 0.13 0.13 90 1005.8
20260506220025 60 158 1.0 7.0 0.02 0.12 0.12 90 1005.9
20260506215523 60 186 1.0 7.0 0.01 0.11 0.11 90 1006.1
20260506215029 60 180 1.0 8.0 0.02 0.11 0.11 90 1005.9
20260506214536 60 208 2.0 8.0 0.02 0.11 0.11 90 1005.8
20260506214023 60 189 3.0 12.0 0.02 0.11 0.11 90 1005.9
20260506213526 60 234 4.0 12.0 0.02 0.11 0.11 90 1006.0
20260506213023 60 183 2.0 9.0 0.03 0.11 0.11 89 1006.0
20260506212521 60 287 2.0 8.0 0.03 0.11 0.11 89 1006.2
20260506212020 60 191 2.0 11.0 0.04 0.11 0.11 89 1006.2
20260506211520 60 182 5.0 11.0 0.04 0.11 0.11 89 1006.2
20260506211019 60 147 3.0 9.0 0.05 0.11 0.11 89 1006.3
20260506210518 60 118 2.0 8.0 0.04 0.10 0.10 89 1006.4
20260506210021 60 210 3.0 8.0 0.05 0.10 0.10 89 1006.4
20260506205518 60 164 3.0 9.0 0.05 0.10 0.10 89 1006.5
20260506205018 61 191 3.0 14.0 0.04 0.09 0.09 89 1006.5
20260506204517 61 220 5.0 15.0 0.04 0.09 0.09 88 1006.6
20260506204016 61 237 5.0 15.0 0.04 0.09 0.09 88 1006.4
20260506203516 61 245 2.0 15.0 0.03 0.08 0.08 88 1006.5
20260506203019 62 258 2.0 11.0 0.04 0.08 0.08 87 1006.5
20260506202515 62 140 1.0 8.0 0.04 0.08 0.08 88 1006.4
20260506202014 62 175 2.0 9.0 0.04 0.07 0.07 87 1006.4
20260506201515 62 167 1.0 9.0 0.04 0.07 0.07 87 1006.4
20260506201019 62 198 4.0 11.0 0.04 0.06 0.06 87 1006.5
20260506200513 62 231 5.0 11.0 0.04 0.06 0.06 87 1006.4
20260506200013 62 232 2.0 7.0 0.04 0.05 0.05 86 1006.4
20260506195513 62 199 2.0 7.0 0.04 0.05 0.05 86 1006.4
20260506195013 63 218 3.0 10.0 0.04 0.05 0.05 86 1006.5
20260506194513 63 206 3.0 10.0 0.04 0.05 0.05 85 1006.3
20260506194017 63 191 3.0 6.0 0.05 0.05 0.05 84 1006.4
20260506193512 64 208 1.0 7.0 0.05 0.05 0.05 84 1006.6
20260506193014 64 185 1.0 7.0 0.04 0.04 0.04 83 1006.6
20260506192511 65 190 1.0 9.0 0.04 0.04 0.04 82 1006.2
20260506192010 65 269 1.0 9.0 0.03 0.03 0.03 81 1006.5
20260506191510 65 190 2.0 11.0 0.03 0.03 0.03 79 1006.6
20260506191010 66 218 4.0 11.0 0.02 0.02 0.02 77 1006.5
20260506190514 66 222 5.0 14.0 0.02 0.02 0.02 76 1006.6
20260506190013 67 233 6.0 15.0 0.01 0.01 0.01 74 1006.7
20260506185509 67 179 7.0 15.0 0.01 0.01 0.01 73 1006.6
20260506185013 68 272 2.0 14.0 0.01 0.01 0.01 72 1006.7
20260506184515 68 181 7.0 14.0 0.01 0.01 0.01 71 1006.5
20260506184013 69 241 3.0 10.0 0.00 0.00 0.00 70 1006.6
20260506183510 69 237 5.0 10.0 0.00 0.00 0.00 68 1006.6
20260506183018 69 239 3.0 12.0 0.00 0.00 0.00 67 1006.7
20260506182509 70 268 4.0 10.0 0.00 0.00 0.00 65 1006.6
20260506182012 70 208 5.0 18.0 0.00 0.00 0.00 64 1006.6
20260506181514 70 249 6.0 20.0 0.00 0.00 0.00 64 1006.5
20260506181011 71 215 6.0 17.0 0.00 0.00 0.00 64 1006.6
20260506180509 71 196 4.0 12.0 0.00 0.00 0.00 63 1006.5
20260506180008 71 251 4.0 9.0 0.00 0.00 0.00 61 1006.6
20260506175508 71 171 2.0 15.0 0.00 0.00 0.00 61 1006.6
20260506175007 72 236 5.0 15.0 0.00 0.00 0.00 60 1006.6
20260506174508 72 193 3.0 13.0 0.00 0.00 0.00 60 1006.7
20260506174008 72 140 5.0 20.0 0.00 0.00 0.00 60 1006.5
20260506173508 72 233 5.0 17.0 0.00 0.00 0.00 60 1006.7
20260506173006 72 241 4.0 17.0 0.00 0.00 0.00 60 1006.4
20260506172505 73 181 4.0 14.0 0.00 0.00 0.00 60 1006.7
20260506172005 72 276 3.0 24.0 0.00 0.00 0.00 60 1006.8
20260506171507 72 183 5.0 24.0 0.00 0.00 0.00 60 1006.9
20260506171005 72 183 4.0 13.0 0.00 0.00 0.00 60 1006.9
20260506170504 72 224 4.0 15.0 0.00 0.00 0.00 61 1006.9
20260506170005 72 226 7.0 15.0 0.00 0.00 0.00 61 1007.0
20260506165502 71 177 5.0 11.0 0.00 0.00 0.00 61 1007.0
20260506165003 71 173 2.0 13.0 0.00 0.00 0.00 61 1007.2
20260506164503 71 253 4.0 12.0 0.00 0.00 0.00 61 1007.3
20260506164002 72 238 5.0 10.0 0.00 0.00 0.00 62 1007.4
20260506163600 71 237 3.0 12.0 0.00 0.00 0.00 62 1007.3
20260506163104 71 235 5.0 12.0 0.00 0.00 0.00 62 1007.4
20260506162558 71 219 4.0 15.0 0.00 0.00 0.00 62 1007.5
20260506162101 71 157 5.0 9.0 0.00 0.00 0.00 61 1007.6
20260506161557 72 164 3.0 12.0 0.00 0.00 0.00 62 1007.6
20260506161058 71 214 5.0 14.0 0.00 0.00 0.00 63 1007.8
20260506160555 71 237 5.0 12.0 0.00 0.00 0.00 63 1008.0
20260506160057 71 181 2.0 16.0 0.00 0.00 0.00 64 1008.1
20260506155557 70 212 4.0 16.0 0.00 0.00 0.00 65 1008.1
20260506155053 70 236 6.0 14.0 0.00 0.00 0.00 65 1008.2
20260506154555 70 181 2.0 16.0 0.00 0.00 0.00 65 1008.3
20260506154052 70 231 8.0 18.0 0.00 0.00 0.00 64 1008.4
20260506153552 70 241 5.0 18.0 0.00 0.00 0.00 64 1008.6
20260506153110 70 219 7.0 21.0 0.00 0.00 0.00 65 1008.6
20260506152551 70 243 3.0 21.0 0.00 0.00 0.00 64 1008.6
20260506152051 70 209 7.0 19.0 0.00 0.00 0.00 64 1008.9
20260506151552 70 214 8.0 23.0 0.00 0.00 0.00 64 1008.7
20260506151055 71 216 6.0 20.0 0.00 0.00 0.00 64 1008.6
20260506150551 70 211 7.0 21.0 0.00 0.00 0.00 65 1008.6
20260506150058 71 79 2.0 10.0 0.00 0.00 0.00 67 1008.7
20260506145550 70 136 4.0 10.0 0.00 0.00 0.00 66 1008.9
20260506145049 70 184 3.0 17.0 0.00 0.00 0.00 67 1008.9
20260506144556 70 168 3.0 17.0 0.00 0.00 0.00 68 1008.8
20260506144048 69 208 3.0 8.0 0.00 0.00 0.00 68 1008.7
20260506143549 69 133 2.0 10.0 0.00 0.00 0.00 69 1008.7
20260506143048 69 167 4.0 10.0 0.00 0.00 0.00 67 1008.8
20260506142547 70 154 2.0 12.0 0.00 0.00 0.00 68 1008.7
20260506142045 69 255 2.0 18.0 0.00 0.00 0.00 69 1008.5
20260506141545 69 172 5.0 18.0 0.00 0.00 0.00 70 1008.4
20260506141044 68 163 4.0 15.0 0.00 0.00 0.00 71 1008.6
20260506140548 68 166 2.0 13.0 0.00 0.00 0.00 72 1008.6
20260506140042 67 153 6.0 13.0 0.00 0.00 0.00 72 1008.7
20260506135540 67 210 4.0 12.0 0.00 0.00 0.00 73 1008.7
20260506135039 66 151 4.0 9.0 0.00 0.00 0.00 73 1008.9
20260506134538 66 134 2.0 11.0 0.00 0.00 0.00 74 1008.9
20260506134041 66 248 2.0 10.0 0.00 0.00 0.00 74 1009.0
20260506133537 66 179 3.0 14.0 0.00 0.00 0.00 74 1009.1
20260506133035 65 194 5.0 15.0 0.00 0.00 0.00 75 1009.1
20260506132538 65 231 4.0 15.0 0.00 0.00 0.00 75 1009.2
20260506132034 65 270 4.0 9.0 0.00 0.00 0.00 75 1009.3
20260506131539 65 223 4.0 15.0 0.00 0.00 0.00 75 1009.3
20260506131033 65 171 5.0 16.0 0.00 0.00 0.00 75 1009.2
20260506130532 65 218 3.0 16.0 0.00 0.00 0.00 75 1009.2
20260506130034 65 256 5.0 16.0 0.00 0.00 0.00 75 1009.3
20260506125532 65 153 5.0 12.0 0.00 0.00 0.00 75 1009.3
20260506125034 65 235 3.0 9.0 0.00 0.00 0.00 76 1009.2
20260506124531 64 253 4.0 10.0 0.00 0.00 0.00 76 1009.2
20260506124035 64 93 3.0 10.0 0.00 0.00 0.00 76 1009.0
20260506123531 64 139 3.0 8.0 0.00 0.00 0.00 77 1009.1
20260506123031 64 154 2.0 14.0 0.00 0.00 0.00 77 1009.1
20260506122531 64 212 4.0 11.0 0.00 0.00 0.00 77 1009.3
20260506122031 64 200 5.0 15.0 0.00 0.00 0.00 76 1009.4
20260506121530 64 181 6.0 14.0 0.00 0.00 0.00 76 1009.4
20260506121030 64 241 4.0 11.0 0.00 0.00 0.00 77 1009.4
20260506120532 63 268 4.0 11.0 0.00 0.00 0.00 79 1009.4
20260506120028 62 162 4.0 9.0 0.00 0.00 0.00 78 1009.4
20260506115531 62 224 2.0 9.0 0.00 0.00 0.00 78 1009.6
20260506115028 62 199 3.0 8.0 0.00 0.00 0.00 79 1009.6
20260506114529 62 200 3.0 11.0 0.00 0.00 0.00 79 1009.6
20260506114027 62 177 4.0 13.0 0.00 0.00 0.00 79 1009.7
20260506113528 62 193 4.0 13.0 0.00 0.00 0.00 79 1009.7
20260506113036 62 222 3.0 11.0 0.00 0.00 0.00 79 1009.7
20260506112527 62 178 3.0 11.0 0.00 0.00 0.00 79 1009.8
20260506112026 62 212 4.0 15.0 0.00 0.00 0.00 79 1009.9
20260506111528 61 238 5.0 14.0 0.00 0.00 0.00 79 1009.7
20260506111027 61 189 3.0 8.0 0.00 0.00 0.00 80 1009.6
20260506110526 61 114 1.0 8.0 0.00 0.00 0.00 81 1009.6
20260506110026 60 110 3.0 8.0 0.00 0.00 0.00 81 1009.7
20260506105525 60 228 2.0 7.0 0.00 0.00 0.00 81 1010.0
20260506105023 60 188 1.0 7.0 0.00 0.00 0.00 80 1010.0
20260506104525 60 177 2.0 10.0 0.00 0.00 0.00 80 1010.0
20260506104022 60 359 2.0 10.0 0.00 0.00 0.00 80 1009.8
20260506103525 60 208 3.0 8.0 0.00 0.00 0.00 80 1009.7
20260506103025 60 243 3.0 9.0 0.00 0.00 0.00 80 1009.7
20260506102521 60 233 2.0 9.0 0.00 0.00 0.00 80 1009.6
20260506102020 60 177 1.0 8.0 0.00 0.00 0.00 80 1009.7
20260506101519 60 231 4.0 9.0 0.00 0.00 0.00 80 1009.7
20260506101017 60 176 2.0 8.0 0.00 0.00 0.00 80 1009.7
20260506100517 60 136 1.0 6.0 0.00 0.00 0.00 80 1009.7
20260506100017 60 215 1.0 8.0 0.00 0.00 0.00 80 1009.8
20260506095516 60 172 3.0 8.0 0.00 0.00 0.00 80 1009.8
20260506095018 60 33 2.0 11.0 0.00 0.00 0.00 80 1009.7
20260506094515 60 180 3.0 10.0 0.00 0.00 0.00 80 1009.5
20260506094014 60 170 1.0 9.0 0.00 0.00 0.00 80 1009.5
20260506093514 60 291 2.0 9.0 0.00 0.00 0.00 79 1009.7
20260506093013 60 245 2.0 9.0 0.00 0.00 0.00 79 1009.7
20260506092513 60 179 2.0 7.0 0.00 0.00 0.00 79 1009.7
20260506092012 60 154 2.0 9.0 0.00 0.00 0.00 79 1009.7
20260506091512 60 187 3.0 8.0 0.00 0.00 0.00 79 1009.7
20260506091010 60 177 3.0 11.0 0.00 0.00 0.00 78 1009.5
20260506090511 60 181 5.0 11.0 0.00 0.00 0.00 78 1009.7
20260506090013 60 183 1.0 5.0 0.00 0.00 0.00 78 1009.7
20260506085509 61 126 0.0 8.0 0.00 0.00 0.00 78 1009.7
20260506085008 61 132 1.0 8.0 0.00 0.00 0.00 77 1009.6
20260506084508 61 118 2.0 7.0 0.00 0.00 0.00 77 1009.8
20260506084012 61 175 1.0 9.0 0.00 0.00 0.00 77 1009.7
20260506083507 61 181 3.0 9.0 0.00 0.00 0.00 76 1009.7
20260506083006 61 189 2.0 10.0 0.00 0.00 0.00 76 1009.7
20260506082505 61 228 4.0 10.0 0.00 0.00 0.00 76 1009.6
20260506082008 61 168 2.0 7.0 0.00 0.00 0.00 76 1009.7
20260506081503 61 170 0.0 8.0 0.00 0.00 0.00 75 1009.7
20260506081003 62 195 3.0 11.0 0.00 0.00 0.00 75 1009.6
20260506080504 62 211 4.0 11.0 0.00 0.00 0.00 75 1009.5
20260506073059 62 184 2.0 8.0 0.00 0.00 0.00 73 1009.3
20260506072558 62 181 4.0 9.0 0.00 0.00 0.00 73 1009.2
20260506072058 62 149 1.0 10.0 0.00 0.00 0.00 72 1009.2
20260506071605 62 172 3.0 10.0 0.00 0.00 0.00 72 1009.2
20260506071057 63 152 3.0 12.0 0.00 0.00 0.00 72 1009.3
20260506070557 63 237 4.0 12.0 0.00 0.00 0.00 72 1009.1
20260506062052 63 208 5.0 15.0 0.00 0.00 0.00 70 1009.0
20260506061551 63 168 3.0 11.0 0.00 0.00 0.00 69 1009.0
20260506061051 63 203 3.0 12.0 0.00 0.00 0.00 69 1009.1
20260506060550 63 218 3.0 12.0 0.00 0.00 0.00 69 1009.0
20260506051045 63 175 2.0 9.0 0.00 0.00 0.00 69 1009.3
20260506050545 63 259 4.0 9.0 0.00 0.00 0.00 69 1009.3
20260506045042 63 224 2.0 12.0 0.00 0.00 0.00 68 1009.6
20260506044542 63 184 3.0 11.0 0.00 0.00 0.00 68 1009.6
20260506044042 63 221 2.0 10.0 0.00 0.00 0.00 68 1009.6
20260506043541 63 208 4.0 10.0 0.00 0.00 0.00 68 1009.5
20260506043041 63 205 0.0 7.0 0.00 0.00 0.00 67 1009.4
20260506042541 63 212 1.0 10.0 0.00 0.00 0.00 67 1009.5
20260506042039 63 198 2.0 14.0 0.00 0.00 0.00 67 1009.5
20260506041538 63 201 2.0 14.0 0.00 0.00 0.00 67 1009.6
20260506041037 63 226 3.0 11.0 0.00 0.00 0.00 66 1009.6
20260506040538 64 120 3.0 9.0 0.00 0.00 0.00 66 1009.6